EW0415 Weather Reports


time (UTC)temp
C
wind
direction
speed
KPH
gust
KPH
rain 1hr
cm
rain 24hr
cm
rain mn
cm
humidity
%
barometer
mb
20260504195013 11 0 0.0 0.0 0.00 0.53 0.08 87 1022.8
20260504194533 11 0 0.0 0.0 0.00 0.53 0.08 87 1022.8
20260504194010 11 0 0.0 0.0 0.00 0.53 0.08 87 1022.7
20260504193514 11 0 0.0 0.0 0.00 0.53 0.08 87 1022.7
20260504193030 11 0 0.0 0.0 0.00 0.53 0.08 87 1022.7
20260504192509 11 0 0.0 0.0 0.00 0.74 0.08 87 1022.7
20260504192010 11 0 0.0 0.0 0.00 0.71 0.05 87 1022.7
20260504191529 11 0 0.0 0.0 0.00 0.71 0.05 87 1022.5
20260504191012 12 0 0.0 0.0 0.00 0.71 0.05 87 1022.5
20260504190508 12 0 0.0 0.0 0.00 0.71 0.05 87 1022.4
20260504190030 12 0 0.0 0.0 0.00 0.71 0.05 87 1022.4
20260504185509 12 0 0.0 0.0 0.00 0.71 0.05 87 1022.4
20260504185009 12 0 0.0 0.0 0.00 0.71 0.05 87 1022.4
20260504184530 12 0 0.0 0.0 0.00 0.71 0.05 87 1022.4
20260504184009 12 0 0.0 0.0 0.00 0.71 0.05 87 1022.4
20260504183512 12 0 0.0 0.0 0.00 0.71 0.05 87 1022.4
20260504183031 12 0 0.0 0.0 0.00 0.71 0.05 87 1022.3
20260504182519 12 0 0.0 0.0 0.00 0.71 0.05 87 1022.3
20260504182017 12 0 0.0 0.0 0.00 0.71 0.05 87 1022.1
20260504181527 12 0 0.0 0.0 0.00 0.71 0.05 87 1022.1
20260504181009 12 0 0.0 0.0 0.00 0.71 0.05 87 1022.1
20260504180511 12 0 0.0 0.0 0.00 0.71 0.05 87 1022.1
20260504180031 12 0 0.0 0.0 0.00 0.71 0.05 87 1022.1
20260504175508 12 0 0.0 0.0 0.00 0.71 0.05 87 1022.1
20260504175009 12 0 0.0 0.0 0.00 0.71 0.05 87 1022.1
20260504174526 12 0 0.0 0.0 0.00 0.71 0.05 87 1022.1
20260504174008 12 0 0.0 0.0 0.00 0.71 0.05 87 1022.1
20260504173510 12 0 0.0 0.0 0.03 0.71 0.05 87 1022.1
20260504173026 12 0 0.0 0.0 0.03 0.71 0.05 87 1022.0
20260504172508 13 0 0.0 0.0 0.03 0.74 0.05 87 1022.1
20260504172010 12 0 0.0 0.0 0.03 0.74 0.05 87 1022.3
20260504171528 12 0 0.0 0.0 0.03 0.74 0.05 86 1022.3
20260504171014 12 0 0.0 0.0 0.03 0.74 0.05 87 1022.3
20260504170508 12 0 0.0 0.0 0.03 0.74 0.05 87 1022.4
20260504151017 12 0 0.0 0.0 0.00 0.84 0.00 84 1022.1
20260504150512 12 0 0.0 0.0 0.00 0.84 0.00 83 1022.1
20260504141008 12 0 0.0 0.0 0.00 0.84 0.84 82 1021.8
20260504140516 12 0 0.0 0.0 0.00 0.84 0.84 82 1021.7
20260504130510 13 0 0.0 0.0 0.00 0.84 0.84 81 1021.6
20260504110511 15 0 0.0 4.8 0.08 0.86 0.84 74 1020.9
20260504100512 16 0 0.0 0.0 0.00 0.84 0.74 72 1019.7
20260504081531 16 284 3.2 14.5 0.00 0.84 0.74 69 1018.1
20260504081010 16 0 3.2 12.9 0.00 0.84 0.74 68 1018.2
20260504080511 17 288 3.2 14.5 0.00 0.84 0.74 68 1018.1
20260504050514 19 296 4.8 19.3 0.00 0.84 0.74 61 1016.4
20260504045509 19 229 4.8 19.3 0.00 0.84 0.74 61 1016.3
20260504045011 19 225 11.3 19.3 0.00 0.84 0.74 60 1016.2
20260504044532 20 277 6.4 20.9 0.00 0.84 0.74 59 1016.2
20260504044008 20 144 6.4 20.9 0.00 0.84 0.74 59 1016.3
20260504043508 20 273 6.4 17.7 0.00 0.84 0.74 59 1016.2
20260504043030 20 268 4.8 17.7 0.00 0.84 0.74 61 1016.2
20260504042509 19 284 6.4 19.3 0.00 0.84 0.74 62 1016.1
20260504042011 19 217 6.4 19.3 0.00 0.84 0.74 63 1016.3
20260504041527 19 252 6.4 19.3 0.00 0.84 0.74 64 1016.3
20260504041010 18 273 4.8 19.3 0.00 0.84 0.74 64 1016.1
20260504040510 18 297 6.4 19.3 0.00 0.84 0.74 63 1016.3
20260504040029 18 220 3.2 19.3 0.00 0.84 0.74 65 1016.4
20260504035512 18 272 3.2 17.7 0.00 0.84 0.74 64 1016.3
20260504035013 18 266 8.0 17.7 0.00 0.84 0.74 63 1016.3
20260504034528 19 274 6.4 19.3 0.00 0.84 0.74 63 1016.3
20260504034017 19 256 6.4 19.3 0.00 0.84 0.74 63 1016.3
20260504033508 18 260 4.8 19.3 0.00 0.84 0.74 63 1016.4
20260504033026 18 297 8.0 19.3 0.00 0.84 0.74 64 1016.2
20260504032512 18 269 8.0 22.5 0.00 0.84 0.74 66 1016.3
20260504032011 18 261 9.7 22.5 0.00 0.84 0.74 65 1016.3
20260504031530 18 290 8.0 19.3 0.00 0.84 0.74 67 1016.3
20260504031012 18 265 6.4 19.3 0.00 0.84 0.74 68 1016.4
20260504030509 18 283 8.0 19.3 0.00 0.84 0.74 67 1016.4
20260504030028 18 273 6.4 17.7 0.00 0.84 0.74 68 1016.5
20260504025510 18 267 4.8 19.3 0.00 0.84 0.74 68 1016.6
20260504025009 18 269 6.4 19.3 0.00 0.84 0.74 67 1016.6
20260504024528 18 301 6.4 16.1 0.00 0.84 0.74 67 1016.5
20260504024009 18 292 6.4 20.9 0.00 0.84 0.74 67 1016.6
20260504023511 18 250 6.4 20.9 0.00 0.84 0.74 68 1016.6
20260504023028 18 204 6.4 19.3 0.00 0.84 0.74 69 1016.6
20260504022513 18 252 6.4 19.3 0.00 0.84 0.74 70 1016.5
20260504022008 18 360 8.0 17.7 0.00 0.84 0.74 71 1016.5
20260504021530 18 360 6.4 22.5 0.00 0.84 0.74 72 1016.6
20260504021009 17 297 9.7 22.5 0.00 0.84 0.74 72 1016.6
20260504020508 17 286 8.0 20.9 0.00 0.84 0.74 73 1016.5
20260504020029 17 360 6.4 17.7 0.00 0.84 0.74 75 1016.6
20260504015509 17 279 3.2 17.7 0.00 0.84 0.74 77 1016.6
20260504015016 17 253 3.2 14.5 0.00 0.84 0.74 77 1016.6
20260504014541 17 215 4.8 14.5 0.00 0.84 0.74 77 1016.5
20260504014009 17 273 6.4 16.1 0.00 0.84 0.74 78 1016.4
20260504013510 17 289 6.4 19.3 0.00 0.84 0.74 78 1016.4
20260504013032 17 296 6.4 24.1 0.00 0.84 0.74 79 1016.3
20260504012515 17 260 8.0 24.1 0.00 0.84 0.74 80 1016.3
20260504012011 17 307 8.0 19.3 0.00 0.84 0.74 81 1016.4
20260504011528 17 288 8.0 19.3 0.00 0.84 0.74 83 1016.3
20260504011010 16 259 6.4 16.1 0.00 0.84 0.74 84 1016.3
20260504010514 16 309 6.4 17.7 0.00 0.84 0.74 84 1016.4
20260504010029 16 308 6.4 17.7 0.00 0.84 0.74 84 1016.3
20260504005510 16 252 4.8 17.7 0.00 0.84 0.74 85 1016.2
20260504005010 16 261 6.4 19.3 0.00 0.84 0.74 85 1016.1
20260504004527 16 238 8.0 22.5 0.00 0.84 0.74 86 1016.0
20260504004010 16 275 6.4 22.5 0.00 0.84 0.74 86 1016.1
20260504003511 16 271 4.8 22.5 0.00 0.84 0.74 86 1015.9
20260504003028 16 260 3.2 14.5 0.00 0.84 0.74 87 1016.1
20260504002510 16 209 0.0 14.5 0.00 0.84 0.74 87 1015.9
20260504002014 16 209 4.8 16.1 0.00 0.84 0.74 87 1015.8
20260504001526 16 258 6.4 16.1 0.00 0.81 0.74 87 1015.8
20260504001009 16 245 3.2 19.3 0.00 0.81 0.74 87 1015.8
20260504000510 16 279 8.0 19.3 0.00 0.81 0.74 87 1015.7
20260504000040 15 249 6.4 19.3 0.00 0.81 0.74 88 1015.7
20260503235510 16 265 4.8 17.7 0.00 0.81 0.74 89 1015.6
20260503235009 15 271 6.4 17.7 0.00 0.81 0.74 89 1015.6
20260503234530 15 239 8.0 16.1 0.00 0.81 0.74 89 1015.6
20260503234009 15 290 3.2 16.1 0.00 0.81 0.74 89 1015.5
20260503233508 15 266 4.8 16.1 0.00 0.81 0.74 89 1015.5
20260503233027 15 284 4.8 16.1 0.00 0.81 0.74 89 1015.4
20260503232512 15 302 1.6 12.9 0.00 0.84 0.74 89 1015.4
20260503232011 15 292 3.2 11.3 0.00 0.84 0.74 89 1015.4
20260503231526 15 295 3.2 11.3 0.00 0.84 0.74 89 1015.3
20260503231010 15 290 0.0 8.0 0.00 0.84 0.74 89 1015.1
20260503230509 15 290 1.6 12.9 0.10 0.84 0.74 89 1015.1
20260503230028 15 0 1.6 12.9 0.18 0.84 0.74 89 1015.0
20260503225515 14 281 3.2 11.3 0.23 0.84 0.74 89 1014.9
20260503225010 14 0 0.0 4.8 0.23 0.84 0.74 89 1014.8
20260503224531 14 0 0.0 4.8 0.23 0.84 0.74 89 1014.7
20260503224014 14 284 0.0 9.7 0.23 0.84 0.74 88 1014.8
20260503223509 14 284 1.6 9.7 0.25 0.84 0.74 88 1014.7
20260503223028 14 282 0.0 9.7 0.25 0.84 0.74 88 1014.6
20260503222511 14 283 1.6 12.9 0.25 0.84 0.74 88 1014.6
20260503222012 14 281 3.2 16.1 0.28 0.84 0.74 88 1014.5
20260503221527 14 0 3.2 16.1 0.33 0.84 0.74 88 1014.5
20260503221011 14 301 1.6 14.5 0.30 0.81 0.71 88 1014.4
20260503220511 14 247 3.2 16.1 0.18 0.66 0.56 88 1014.4
20260503220027 14 263 4.8 16.1 0.10 0.61 0.51 88 1014.3
20260503215510 14 286 1.6 12.9 0.08 0.58 0.48 88 1014.0
20260503215012 14 286 3.2 14.5 0.08 0.58 0.48 88 1014.0
20260503214532 14 291 3.2 14.5 0.08 0.58 0.48 88 1013.9
20260503214010 14 0 3.2 12.9 0.08 0.58 0.48 88 1013.8
20260503213512 14 300 3.2 12.9 0.08 0.56 0.46 88 1013.9
20260503213032 14 297 1.6 12.9 0.08 0.56 0.46 88 1013.9
20260503212517 14 298 3.2 12.9 0.08 0.56 0.46 87 1013.8
20260503212011 14 293 4.8 11.3 0.05 0.56 0.46 87 1013.8
20260503211530 14 0 3.2 12.9 0.00 0.48 0.38 87 1013.8
20260503211011 14 300 3.2 16.1 0.00 0.48 0.38 87 1013.7
20260503210507 14 304 3.2 16.1 0.00 0.48 0.38 87 1013.7
20260503210043 14 304 4.8 17.7 0.00 0.48 0.38 87 1013.7
20260503205516 14 305 3.2 17.7 0.00 0.48 0.38 87 1013.7
20260503205010 14 300 4.8 17.7 0.00 0.48 0.38 87 1013.6
20260503204530 14 292 4.8 19.3 0.00 0.48 0.38 87 1013.7
20260503204013 14 304 6.4 19.3 0.00 0.48 0.38 87 1013.6
20260503203507 14 277 3.2 12.9 0.00 0.48 0.38 87 1013.4
20260503203030 14 279 4.8 12.9 0.00 0.48 0.38 87 1013.3
20260503202511 14 288 4.8 12.9 0.00 0.48 0.38 87 1013.3
20260503202011 14 292 4.8 20.9 0.00 0.48 0.38 86 1013.2
20260503201534 14 292 6.4 20.9 0.18 0.48 0.38 87 1013.4
20260503201010 14 306 6.4 19.3 0.18 0.48 0.38 86 1013.2
20260503200510 14 278 4.8 14.5 0.18 0.48 0.38 86 1013.2
20260503200026 14 273 3.2 14.5 0.18 0.48 0.38 86 1013.0
20260503195511 14 285 3.2 12.9 0.18 0.48 0.38 86 1013.1